[[{"header":{"parameterUnit":"m.s-1","parameterCategory":1,"la1":30.2991,"la2":30.254,"lo1":-89.0895,"lo2":-89.0444,"dy":0.0017,"dx":0.0017,"nx":28,"ny":28,"refTime":"2024-05-30T03:00:00:Z","depth":0,"parameterNumber":2,"parameterNumberName":"U-component_of_WINDS"},"data":[0,0,0,0,0,0,0,0,0,0,0,0,0,0,0,0,0,0,0,0,0,0,0,0,0,0,0,0,0,0,0,0,0,0,0,0,0,0,0,0,0,0,0,0,0,0,0,0,0,0,0,0,0,0,0,0,0,0,-5.687,-5.6871,0,-5.6974,-5.6975,-5.6976,-5.6947,-5.6945,-5.6943,-5.6941,-5.7042,-5.7047,-5.7051,0,0,0,0,0,0,0,0,0,0,0,0,0,-5.6645,-5.6649,-5.687,-5.6871,-5.6873,-5.6974,-5.6975,-5.6976,-5.6948,-5.6945,-5.6943,-5.694,-5.7041,-5.7046,-5.7052,0,0,0,0,0,0,0,0,0,0,0,0,0,-5.6745,-5.665,-5.687,-5.6871,-5.6872,-5.6973,-5.6975,-5.6977,-5.6948,-5.6945,-5.6942,-5.6939,-5.7039,-5.7046,-5.7053,-5.7158,0,0,-5.7074,-5.7077,0,0,0,0,0,0,0,0,-5.6739,-5.6753,-5.6869,-5.6871,-5.6872,-5.6945,-5.6932,-5.7037,-5.6949,-5.6919,-5.6941,-5.6938,-5.7012,-5.7021,-5.7047,-5.7163,-5.7167,-5.7074,-5.7079,-5.7082,-5.7084,0,0,0,0,0,0,0,-5.6732,-5.6748,-5.6911,-5.6871,-5.6873,-5.6865,-5.6876,-5.6952,-5.6982,-5.6921,-5.692,-5.6933,-5.7012,-5.704,-5.7049,-5.7168,-5.7074,-5.708,-5.7085,-5.7087,-5.7376,-5.738,0,0,0,0,0,0,-5.6725,-5.6743,-5.6908,-5.6914,-5.6797,-5.6872,-5.6884,-5.6924,-5.6981,-5.6986,-5.6935,-5.6931,-5.703,-5.7041,-5.7053,-5.7179,-5.7081,-5.7088,-5.7092,-5.7373,-5.7377,-5.7381,0,0,0,0,0,0,-5.672,-5.674,-5.6903,-5.6828,-5.6848,-5.6879,-5.6925,-5.6928,-5.6956,-5.6991,-5.6996,-5.6959,-5.7028,-5.7043,-5.7132,-5.7182,-5.7091,-5.7097,-5.7369,-5.7374,-5.7379,-5.7433,0,0,0,0,0,0,-5.6714,-5.6738,-5.6779,-5.6829,-5.6852,-5.6982,-5.6928,-5.6932,-5.6969,-5.6964,-5.7014,-5.702,-5.7027,-5.7122,-5.7139,-5.719,-5.7103,-5.7364,-5.7371,-5.7377,-5.7427,-5.744,-5.7451,0,0,0,0,0,-5.6706,-5.6789,-5.6781,-5.6801,-5.6904,-5.6985,-5.6998,-5.7006,-5.6973,-5.7014,-5.7037,-5.7018,-5.7175,-5.7132,-5.7151,-5.7204,-5.7361,-5.7369,-5.7377,-5.7422,-5.7437,-5.745,0,0,0,0,0,0,-5.674,-5.6795,-5.6787,-5.6889,-5.6933,-5.698,-5.7031,-5.7022,-5.7075,-5.7068,-5.7074,-5.7086,-5.7177,-5.72,-5.7151,-5.731,-5.7263,-5.7275,-5.7291,-5.7306,-5.7317,-5.7308,-5.7109,0,0,0,0,0,-5.6761,-5.6824,-5.6867,-5.6953,-5.6976,-5.7001,-5.7036,-5.7039,-5.7083,-5.7101,-5.713,-5.7174,-5.7233,-5.7271,-5.7327,-5.7432,-5.7442,-5.7478,-5.749,-5.75,-5.7509,-5.7566,-5.7582,-5.7407,-5.7407,-5.7407,0,0,-5.6802,-5.6839,-5.6878,-5.6961,-5.6995,-5.7059,-5.7016,-5.7085,-5.7131,-5.7111,-5.7197,-5.7221,-5.727,-5.7367,-5.7412,-5.7389,-5.756,-5.751,-5.7517,-5.7521,-5.7576,-5.7592,-5.7607,-5.7412,-5.7411,-5.7411,0,0,-5.6908,-5.6944,-5.702,-5.7056,-5.7109,-5.7126,-5.7144,-5.7194,-5.7209,-5.7297,-5.7283,-5.7339,-5.7441,-5.7476,-5.7507,-5.7632,-5.7616,-5.765,-5.771,-5.7765,-5.7779,-5.7791,-5.7834,-5.785,-5.766,-5.766,-5.766,0,-5.6951,-5.7048,-5.7059,-5.713,-5.7167,-5.7155,-5.7231,-5.7265,-5.7333,-5.7358,-5.7333,-5.7462,-5.7494,-5.7599,-5.763,-5.7657,-5.7677,-5.7642,-5.7777,-5.7789,-5.7801,-5.7841,-5.7858,-5.7664,-5.7663,-5.7663,-5.7663,0,-5.7098,-5.7166,-5.722,-5.7289,-5.7332,-5.7405,-5.7427,-5.7469,-5.747,-5.7488,-5.7578,-5.7617,-5.7681,-5.7707,-5.7707,-5.7813,-5.7798,-5.7775,-5.7727,-5.7821,-5.7859,-5.7875,-5.7669,-5.7668,-5.7667,-5.7666,0,0,-5.7225,-5.7302,-5.7322,-5.7353,-5.7413,-5.7465,-5.7538,-5.7603,-5.7639,-5.7688,-5.7748,-5.7837,-5.7817,-5.7852,-5.7857,-5.7906,-5.8001,-5.7877,-5.7878,-5.7897,-5.8119,-5.8134,-5.8152,-5.7993,-5.7996,-5.7999,-5.8115,0,-5.7335,-5.7465,-5.7478,-5.7593,-5.7656,-5.7647,-5.7711,-5.7754,-5.7775,-5.783,-5.7853,-5.7915,-5.7884,-5.7906,-5.7955,-5.7979,-5.8045,-5.7971,-5.8047,-5.8049,-5.8032,-5.8172,-5.8187,-5.8295,-5.813,-5.8132,-5.8134,0,-5.7479,-5.7535,-5.7657,-5.771,-5.7737,-5.7794,-5.7855,-5.7909,-5.7958,-5.797,-5.8012,-5.8011,-5.8085,-5.8039,-5.8141,-5.809,-5.8123,-5.814,-5.8145,-5.8149,-5.8095,-5.8178,-5.8329,-5.8344,-5.8158,-5.8156,-5.8155,0,-5.7557,-5.7663,-5.775,-5.7777,-5.7842,-5.7882,-5.7911,-5.7958,-5.7996,-5.805,-5.8075,-5.8137,-5.817,-5.8217,-5.8232,-5.8197,-5.8334,-5.8288,-5.8344,-5.8344,-5.8369,-5.8367,-5.8525,-5.8396,-5.8396,-5.8396,-5.8395,0,-5.7676,-5.7751,-5.7786,-5.7838,-5.7922,-5.7938,-5.802,-5.8046,-5.8089,-5.8146,-5.8143,-5.8197,-5.8215,-5.8272,-5.8285,-5.8367,-5.8383,-5.8393,-5.8395,-5.8392,-5.839,-5.841,-5.8402,-5.84,-5.8399,-5.8398,-5.8397,0,-5.7775,-5.7802,-5.7896,-5.7951,-5.7967,-5.8026,-5.8072,-5.8123,-5.8145,-5.8218,-5.8236,-5.8269,-5.8336,-5.8358,-5.8438,-5.8447,-5.8542,-5.8539,-5.8526,-5.8525,-5.8579,-5.8572,-5.8753,-5.8777,-5.8634,-5.8636,-5.8637,0,-5.7848,-5.7905,-5.7968,-5.8007,-5.8038,-5.8101,-5.8142,-5.8161,-5.8203,-5.8266,-5.8309,-5.8376,-5.843,-5.8538,-5.8568,-5.863,-5.8626,-5.8686,-5.8635,-5.863,-5.8625,-5.862,-5.8625,-5.8694,-5.8695,-5.8696,-5.8697,0,-5.7973,-5.7985,-5.8044,-5.8109,-5.8158,-5.8209,-5.8259,-5.8291,-5.8317,-5.8365,-5.8434,-5.8477,-5.8561,-5.8627,-5.8691,-5.8719,-5.8712,-5.8714,-5.873,-5.8725,-5.8714,-5.8718,-5.8548,-5.8709,-5.8707,-5.8707,-5.8706,-5.8706,-5.8059,-5.811,-5.8163,-5.823,-5.827,-5.8317,-5.8368,-5.8398,-5.8457,-5.8527,-5.8536,-5.861,-5.866,-5.8746,-5.8778,-5.8836,-5.8819,-5.8842,-5.8847,-5.8852,-5.8855,-5.8708,-5.8848,-5.8848,-5.8848,-5.8847,-5.8847,0,-5.8183,-5.8217,-5.8279,-5.835,-5.8402,-5.8396,-5.8451,-5.8495,-5.8561,-5.8609,-5.8664,-5.8745,-5.881,-5.8848,-5.8913,-5.8952,-5.8951,-5.8968,-5.8964,-5.897,-5.8868,-5.8847,-5.8968,-5.8968,-5.8968,-5.8968,-5.8968,-5.8968,-5.8253,-5.8338,-5.8357,-5.8463,-5.8497,-5.8571,-5.8603,-5.8647,-5.8686,-5.8776,-5.8831,-5.8857,-5.8901,-5.897,-5.9029,-5.9038,-5.9061,-5.908,-5.9087,-5.899,-5.8977,-5.8965,-5.8945,-5.9086,-5.9086,-5.9185,-5.9186,-5.9186]},{"header":{"parameterUnit":"m.s-1","parameterCategory":1,"la1":30.2991,"la2":30.254,"lo1":-89.0895,"lo2":-89.0444,"dy":0.0017,"dx":0.0017,"nx":28,"ny":28,"refTime":"2024-05-30T03:00:00:Z","depth":0,"parameterNumber":3,"parameterNumberName":"V-component_of_WINDS"},"data":[0,0,0,0,0,0,0,0,0,0,0,0,0,0,0,0,0,0,0,0,0,0,0,0,0,0,0,0,0,0,0,0,0,0,0,0,0,0,0,0,0,0,0,0,0,0,0,0,0,0,0,0,0,0,0,0,0,0,2.5456,2.5455,0,2.5405,2.5405,2.5404,2.5382,2.5382,2.5382,2.5383,2.5325,2.5323,2.5321,0,0,0,0,0,0,0,0,0,0,0,0,0,2.5528,2.5527,2.5456,2.5455,2.5454,2.5405,2.5405,2.5404,2.5382,2.5382,2.5383,2.5383,2.5325,2.5323,2.5321,0,0,0,0,0,0,0,0,0,0,0,0,0,2.5489,2.5526,2.5456,2.5438,2.5436,2.5405,2.5405,2.5404,2.5382,2.5382,2.5383,2.5383,2.5326,2.5323,2.5321,2.5303,0,0,2.5313,2.5312,0,0,0,0,0,0,0,0,2.5491,2.5486,2.5441,2.5439,2.5437,2.54,2.5409,2.537,2.5382,2.5402,2.5383,2.5383,2.5349,2.5345,2.5335,2.53,2.5297,2.5313,2.5312,2.5311,2.531,0,0,0,0,0,0,0,2.5494,2.5488,2.5435,2.544,2.5438,2.5431,2.5425,2.5401,2.5375,2.5401,2.5399,2.5394,2.5348,2.5337,2.5333,2.5297,2.5313,2.5311,2.531,2.5309,2.5245,2.5245,0,0,0,0,0,0,2.55,2.5491,2.5437,2.5434,2.5465,2.5429,2.5423,2.5412,2.5376,2.537,2.5394,2.5393,2.5341,2.5336,2.5331,2.5308,2.5311,2.5308,2.5307,2.5245,2.5245,2.5245,0,0,0,0,0,0,2.5502,2.5496,2.5439,2.5462,2.5454,2.5428,2.5415,2.5411,2.54,2.537,2.5365,2.5388,2.5341,2.5335,2.5311,2.5306,2.5307,2.5305,2.5246,2.5245,2.5245,2.5261,0,0,0,0,0,0,2.5504,2.5496,2.549,2.5462,2.5453,2.5421,2.5415,2.541,2.5397,2.5395,2.5363,2.5358,2.5341,2.5314,2.5308,2.5302,2.5303,2.5246,2.5245,2.5245,2.5261,2.5262,2.5262,0,0,0,0,0,2.5507,2.5495,2.549,2.5484,2.5445,2.5421,2.5415,2.5397,2.5396,2.5389,2.537,2.5359,2.5308,2.5312,2.5305,2.5298,2.5246,2.5245,2.5245,2.5261,2.5262,2.5262,0,0,0,0,0,0,2.5521,2.5491,2.5485,2.5465,2.5446,2.5417,2.5408,2.5399,2.5378,2.5377,2.5354,2.5347,2.5325,2.5309,2.5315,2.5279,2.5276,2.5274,2.529,2.5291,2.5291,2.5295,2.5301,0,0,0,0,0,2.5522,2.5507,2.5481,2.5465,2.5456,2.5434,2.5422,2.5411,2.5389,2.538,2.5359,2.5337,2.5316,2.5303,2.5281,2.5259,2.5252,2.5251,2.5252,2.5252,2.525,2.5238,2.5237,2.5243,2.5243,2.5243,0,0,2.5524,2.5506,2.5497,2.5468,2.5451,2.5435,2.5427,2.5409,2.5396,2.5377,2.5354,2.5338,2.5312,2.5289,2.5277,2.5275,2.5247,2.5251,2.5252,2.525,2.5237,2.5237,2.5236,2.5243,2.5243,2.5243,0,0,2.5518,2.5503,2.5489,2.5473,2.545,2.5436,2.5432,2.5406,2.5395,2.5372,2.5358,2.5341,2.5305,2.5287,2.5274,2.5263,2.5252,2.5257,2.5259,2.5247,2.5247,2.5246,2.5242,2.5241,2.5255,2.5255,2.5255,0,2.5522,2.5498,2.5482,2.5465,2.5453,2.5438,2.5423,2.5408,2.5378,2.5369,2.5367,2.5323,2.5304,2.5277,2.5275,2.5264,2.5259,2.526,2.5248,2.5248,2.5247,2.5243,2.5242,2.5256,2.5256,2.5256,2.5256,0,2.5504,2.5487,2.5478,2.5453,2.5439,2.5423,2.5404,2.5392,2.5382,2.5367,2.5344,2.5321,2.5296,2.5288,2.5277,2.526,2.5259,2.5253,2.5249,2.5247,2.5243,2.5242,2.5257,2.5257,2.5257,2.5257,0,0,2.5504,2.5472,2.5469,2.5457,2.5432,2.5418,2.5401,2.5379,2.5369,2.5349,2.5334,2.5305,2.53,2.5284,2.5271,2.5261,2.5254,2.5256,2.5255,2.5256,2.5234,2.5239,2.5237,2.5247,2.5247,2.5247,2.5236,0,2.5494,2.5466,2.5452,2.5429,2.5414,2.54,2.5385,2.5367,2.5354,2.5337,2.5321,2.5301,2.5296,2.5286,2.5276,2.5257,2.5249,2.5258,2.5231,2.5231,2.5238,2.5235,2.5239,2.5231,2.5235,2.5234,2.5234,0,2.5479,2.5462,2.5439,2.5416,2.5409,2.5397,2.5375,2.536,2.5339,2.533,2.5314,2.5302,2.5282,2.5281,2.5254,2.526,2.5248,2.5238,2.5237,2.5233,2.5232,2.5231,2.5227,2.5226,2.5231,2.5232,2.5232,0,2.5481,2.5453,2.5435,2.5426,2.5399,2.5391,2.5379,2.5359,2.5346,2.5327,2.5319,2.5297,2.5285,2.5268,2.5249,2.525,2.5224,2.5221,2.5215,2.5215,2.5209,2.5209,2.5203,2.5202,2.5202,2.5202,2.5202,0,2.5472,2.5458,2.5437,2.5426,2.541,2.5393,2.5377,2.5364,2.5346,2.5332,2.5318,2.5304,2.5281,2.5264,2.5249,2.5229,2.5223,2.5214,2.521,2.5215,2.5217,2.5207,2.5207,2.5202,2.5202,2.5202,2.5202,0,2.5471,2.5457,2.5437,2.5414,2.5408,2.5397,2.5377,2.5365,2.5352,2.5334,2.5328,2.5306,2.5286,2.5266,2.5238,2.5228,2.5208,2.5203,2.5215,2.5213,2.5208,2.5209,2.5195,2.5192,2.5194,2.5194,2.5194,0,2.5466,2.5456,2.5433,2.5423,2.5413,2.5397,2.5385,2.5369,2.5357,2.5333,2.5324,2.5304,2.5286,2.5253,2.5234,2.5212,2.5206,2.5203,2.5203,2.5208,2.5206,2.5207,2.5205,2.5203,2.5203,2.5203,2.5203,0,2.5458,2.5452,2.5437,2.542,2.5407,2.5392,2.5376,2.5369,2.5349,2.5336,2.5316,2.5303,2.5276,2.5255,2.5231,2.5217,2.5206,2.5204,2.5201,2.5206,2.5214,2.5209,2.5216,2.5204,2.5204,2.5204,2.5204,2.5204,2.5455,2.5446,2.5429,2.5412,2.54,2.5386,2.5374,2.536,2.5344,2.5323,2.5313,2.5293,2.5273,2.5241,2.5227,2.521,2.5208,2.5204,2.5203,2.5202,2.5203,2.5217,2.5206,2.5206,2.5206,2.5206,2.5206,0,2.5447,2.5436,2.5421,2.5401,2.5388,2.5383,2.5365,2.5354,2.5338,2.5321,2.5305,2.5282,2.5262,2.5242,2.5221,2.5211,2.5206,2.5206,2.5206,2.5203,2.5207,2.5211,2.5211,2.5211,2.5211,2.5211,2.5211,2.5211,2.5441,2.5425,2.5417,2.5394,2.5382,2.5364,2.5355,2.5342,2.5329,2.5305,2.5289,2.5277,2.5259,2.5236,2.5218,2.5212,2.5204,2.5206,2.5199,2.5203,2.5202,2.5202,2.5206,2.5205,2.5205,2.5196,2.5196,2.5196]}]]